Waarnemingen

Advertentie
Mijn weer
Girona/Costa Brava, Spanje (8184): temperatuur & dauwpunt: 15.02.2020 09:00:00 - 21.02.2020 09:00:00 (CET)Girona/Costa Brava, Spanje (8184): windsnelheid: 15.02.2020 09:00:00 - 21.02.2020 09:00:00 (CET)Girona/Costa Brava, Spanje (8184): windrichting: 15.02.2020 09:00:00 - 21.02.2020 09:00:00 (CET)Girona/Costa Brava, Spanje (8184): luchtdruk: 15.02.2020 09:00:00 - 21.02.2020 09:00:00 (CET)Girona/Costa Brava, Spanje (8184): zicht: 15.02.2020 09:00:00 - 21.02.2020 09:00:00 (CET)
Datum & Tijd tt [°C] td [°C] ff [km/u] ff [kn] dd ppp [hPa] vv [km]
21.02.2020 09:00:00 5,0 4,7 4 2 ONO 1029,7 -
21.02.2020 08:00:00 1,7 1,7 5 3 NO 1029,2 -
21.02.2020 07:00:00 2,2 2,2 8 4 W 1028,4 -
21.02.2020 06:00:00 1,9 1,9 2 1 NNW 1028,0 -
21.02.2020 05:00:00 1,6 1,5 9 5 NO 1028,0 -
21.02.2020 04:00:00 2,6 2,5 8 4 ZW 1027,8 5
21.02.2020 03:00:00 3,5 3,2 0 0 N 1027,8 -
21.02.2020 02:00:00 3,8 3,4 4 2 WZW 1027,9 -
21.02.2020 01:00:00 4,9 4,3 4 2 WZW 1027,4 -
21.02.2020 00:00:00 5,3 4,6 0 0 N 1026,9 -
20.02.2020 23:00:00 6,5 5,1 0 0 N 1026,4 -
20.02.2020 22:00:00 7,1 5,3 5 3 NO 1026,0 10
20.02.2020 21:00:00 8,7 6,3 4 2 NW 1025,6 -
20.02.2020 20:00:00 9,5 7,0 11 6 N 1025,6 -
20.02.2020 19:00:00 12,1 8,8 5 3 ZZW 1024,5 -
20.02.2020 18:00:00 14,0 9,4 11 6 ZZW 1023,4 -
20.02.2020 17:00:00 17,8 7,4 5 3 ZO 1022,8 -
20.02.2020 16:00:00 18,2 6,8 5 3 ZW 1022,7 17
20.02.2020 15:00:00 17,8 5,9 2 1 NNW 1022,5 -
20.02.2020 14:00:00 16,5 4,8 2 1 O 1023,2 -
20.02.2020 13:00:00 15,2 6,2 8 4 Z 1023,9 20
20.02.2020 12:00:00 0,8 -5,0 5 3 Z 1025,4 -
20.02.2020 11:00:00 10,3 6,4 2 1 Z 1025,0 -
20.02.2020 10:00:00 6,8 5,8 5 3 ONO 1025,3 25
20.02.2020 09:00:00 2,9 2,9 4 2 ZW 1025,5 -
20.02.2020 08:00:00 0,4 0,4 8 4 WZW 1025,7 -
20.02.2020 07:00:00 0,8 0,8 0 0 N 1025,7 -
20.02.2020 06:00:00 1,1 1,1 0 0 N 1025,8 -
20.02.2020 05:00:00 2,1 2,1 4 2 W 1025,9 -
20.02.2020 04:00:00 2,5 2,5 8 4 W 1026,4 -
20.02.2020 03:00:00 3,4 3,3 4 2 Z 1026,8 -
20.02.2020 02:00:00 4,2 4,1 0 0 N 1027,4 -
20.02.2020 01:00:00 4,8 4,5 0 0 N 1027,9 -
20.02.2020 00:00:00 4,9 4,6 4 2 ONO 1028,3 -
19.02.2020 23:00:00 5,4 5,1 5 3 WNW 1028,5 -
19.02.2020 22:00:00 5,6 5,2 8 4 NNO 1028,7 -
19.02.2020 21:00:00 6,2 5,6 5 3 NO 1028,7 -
19.02.2020 20:00:00 8,8 7,2 0 0 N 1028,6 -
19.02.2020 19:00:00 9,5 7,3 8 4 ZZW 1028,5 10
19.02.2020 18:00:00 11,5 8,0 15 8 Z 1028,0 -
19.02.2020 17:00:00 12,8 7,9 16 9 Z 1028,0 -
19.02.2020 16:00:00 13,0 7,6 16 9 Z 1028,4 25
19.02.2020 15:00:00 13,8 8,1 15 8 Z 1029,0 -
19.02.2020 14:00:00 14,6 7,9 15 8 Z 1029,6 -
19.02.2020 13:00:00 14,4 7,0 11 6 Z 1030,2 30
19.02.2020 12:00:00 13,9 6,1 4 2 Z 1031,5 -
19.02.2020 11:00:00 12,1 5,4 2 1 NO 1031,7 -
19.02.2020 10:00:00 9,3 6,4 0 0 N 1031,7 -
19.02.2020 09:00:00 6,3 5,5 5 3 N 1031,6 -
19.02.2020 08:00:00 3,4 3,3 8 4 NNO 1030,9 -
19.02.2020 07:00:00 3,5 3,4 11 6 ONO 1030,0 -
19.02.2020 06:00:00 4,2 3,6 2 1 ZZO 1029,1 -
19.02.2020 05:00:00 4,9 4,3 11 6 ZZW 1028,9 -
19.02.2020 04:00:00 5,8 4,9 5 3 NW 1030,4 -
19.02.2020 03:00:00 6,4 4,9 5 3 NO 1030,2 -
19.02.2020 02:00:00 7,1 5,9 5 3 ZZW 1030,2 -
19.02.2020 01:00:00 8,1 6,4 0 0 N 1030,5 -
19.02.2020 00:00:00 9,2 7,0 5 3 WZW 1030,9 -
18.02.2020 23:00:00 9,5 7,1 8 4 Z 1030,9 -
18.02.2020 22:00:00 10,1 6,8 4 2 ZZO 1031,2 -
18.02.2020 21:00:00 10,4 7,2 0 0 N 1030,8 -
18.02.2020 20:00:00 10,5 6,9 4 2 O 1030,6 -
18.02.2020 19:00:00 10,8 7,0 9 5 ZZW 1030,1 10
18.02.2020 18:00:00 11,6 7,3 13 7 Z 1029,4 -
18.02.2020 17:00:00 12,9 7,0 8 4 ZZO 1028,8 -
18.02.2020 16:00:00 13,5 5,9 8 4 ZZW 1029,0 -
18.02.2020 15:00:00 14,1 5,9 4 2 WZW 1029,5 -
18.02.2020 14:00:00 14,8 5,7 4 2 ZZW 1029,9 -
18.02.2020 13:00:00 13,4 5,2 5 3 ZZW 1030,7 25
18.02.2020 12:00:00 13,7 6,0 0 0 N 1031,4 -
18.02.2020 11:00:00 11,6 5,1 5 3 O 1031,7 -
18.02.2020 10:00:00 10,7 5,9 9 5 NNO 1031,8 -
18.02.2020 09:00:00 8,3 6,4 0 0 N 1031,4 -
18.02.2020 08:00:00 7,2 5,7 5 3 N 1030,9 -
18.02.2020 07:00:00 7,9 6,2 0 0 N 1030,3 -
18.02.2020 06:00:00 8,8 6,6 8 4 N 1030,1 -
18.02.2020 05:00:00 9,2 8,1 5 3 NNO 1029,6 -
18.02.2020 04:00:00 9,5 8,4 4 2 NO 1029,7 -
18.02.2020 03:00:00 9,7 8,8 4 2 WNW 1029,9 -
18.02.2020 02:00:00 9,7 8,6 8 4 ONO 1029,5 -
18.02.2020 01:00:00 10,0 9,4 9 5 NO 1029,3 -
18.02.2020 00:00:00 10,2 8,5 9 5 NO 1028,8 -
17.02.2020 23:00:00 11,2 7,1 5 3 NO 1028,2 -
17.02.2020 22:00:00 11,4 6,9 8 4 ONO 1027,8 -
17.02.2020 21:00:00 11,8 6,9 13 7 ONO 1027,2 -
17.02.2020 20:00:00 12,4 7,9 5 3 OZO 1026,4 -
17.02.2020 19:00:00 12,6 7,7 11 6 ONO 1025,7 12
17.02.2020 18:00:00 14,0 8,2 22 12 ONO 1024,6 -
17.02.2020 17:00:00 15,5 10,7 9 5 O 1023,8 -
17.02.2020 16:00:00 16,9 10,6 15 8 ONO 1023,1 -
17.02.2020 15:00:00 17,1 10,9 16 9 NO 1022,8 -
17.02.2020 14:00:00 16,7 10,3 13 7 NNO 1022,6 -
17.02.2020 13:00:00 15,6 11,2 11 6 NO 1023,2 -
17.02.2020 12:00:00 15,0 9,9 8 4 NO 1023,5 -
17.02.2020 11:00:00 12,9 9,9 8 4 NO 1023,4 -
17.02.2020 10:00:00 10,4 9,3 8 4 NO 1023,6 -
17.02.2020 09:00:00 7,6 7,6 0 0 N 1023,2 -
17.02.2020 08:00:00 5,0 4,9 0 0 N 1022,9 -
17.02.2020 07:00:00 5,7 5,5 2 1 NNO 1022,6 -
17.02.2020 06:00:00 6,7 6,3 4 2 NNO 1022,6 -
17.02.2020 05:00:00 8,8 7,8 9 5 Z 1022,4 -
17.02.2020 04:00:00 8,6 7,7 9 5 Z 1022,5 -
17.02.2020 03:00:00 10,2 9,0 15 8 ZZW 1022,4 -
17.02.2020 02:00:00 10,3 9,1 18 10 ZZW 1022,6 -
17.02.2020 01:00:00 10,8 9,6 22 12 ZZW 1022,8 9
17.02.2020 00:00:00 11,1 9,8 24 13 ZZW 1023,0 -
16.02.2020 23:00:00 11,4 10,3 16 9 ZZW 1023,0 -
16.02.2020 22:00:00 11,4 10,6 18 10 ZZW 1023,5 7
16.02.2020 21:00:00 11,2 10,6 22 12 ZZW 1023,3 -
16.02.2020 20:00:00 11,6 10,7 16 9 Z 1023,2 -
16.02.2020 19:00:00 12,4 10,6 16 9 Z 1022,5 -
16.02.2020 18:00:00 13,7 11,0 22 12 Z 1021,9 -
16.02.2020 17:00:00 16,3 11,6 28 15 Z 1021,3 -
16.02.2020 16:00:00 16,7 11,9 37 20 ZZW 1021,3 -
16.02.2020 15:00:00 16,9 11,4 41 22 ZZW 1021,4 -
16.02.2020 14:00:00 16,5 11,3 41 22 ZZW 1022,0 -
16.02.2020 13:00:00 16,6 11,5 34 18 ZZW 1022,8 -
16.02.2020 12:00:00 16,1 10,9 26 14 ZZW 1023,8 -
16.02.2020 11:00:00 15,0 11,0 24 13 ZZW 1024,0 -
16.02.2020 10:00:00 13,2 10,7 24 13 ZZW 1023,9 -
16.02.2020 09:00:00 11,0 9,9 16 9 ZZW 1024,3 -
16.02.2020 08:00:00 9,9 9,2 18 10 ZW 1023,8 -
16.02.2020 07:00:00 8,9 8,3 5 3 WZW 1023,4 -
16.02.2020 06:00:00 10,4 9,9 11 6 ZZW 1023,8 -
16.02.2020 05:00:00 10,1 9,8 8 4 ZZW 1024,2 -
16.02.2020 04:00:00 10,3 10,0 9 5 Z 1024,8 -
16.02.2020 03:00:00 10,5 10,2 0 0 N 1026,1 -
16.02.2020 02:00:00 10,9 10,4 9 5 Z 1025,7 -
16.02.2020 01:00:00 11,1 10,6 13 7 Z 1025,6 -
16.02.2020 00:00:00 11,6 11,4 11 6 Z 1025,4 -
15.02.2020 23:00:00 11,5 11,3 8 4 ZZW 1025,7 -
15.02.2020 22:00:00 11,6 11,1 11 6 Z 1026,2 -
15.02.2020 21:00:00 11,7 11,1 9 5 Z 1026,0 -
15.02.2020 20:00:00 11,9 11,1 15 8 ZZW 1025,6 -
15.02.2020 19:00:00 12,4 11,3 9 5 Z 1025,2 10
15.02.2020 18:00:00 12,7 11,1 13 7 Z 1024,5 -
15.02.2020 17:00:00 13,0 11,3 11 6 Z 1024,6 -
15.02.2020 16:00:00 13,2 10,7 4 2 ONO 1025,4 -
15.02.2020 15:00:00 13,0 10,2 8 4 ONO 1024,8 -
15.02.2020 14:00:00 13,3 10,2 4 2 OZO 1024,9 -
15.02.2020 13:00:00 12,1 10,3 5 3 ZZO 1025,7 9
15.02.2020 12:00:00 11,7 10,9 0 0 N 1026,3 -
15.02.2020 11:00:00 9,9 9,9 0 0 N 1026,3 -
15.02.2020 10:00:00 8,2 8,2 0 0 N 1026,3 -
15.02.2020 09:00:00 6,8 6,8 0 0 N 1026,0 -

tt = temperatuur
td = dauwpunt
ff = windsnelheid
dd = windrichting
ppp = luchtdruk
vv = zicht

Weerstations in de omgeving